This is the latest recevied weather packets stored in our database for station/object SP4MAZ-13. If no packets are shown the sender has not sent any weather packets the latest 10 day(s).
| Time | Temp. | Humidity | Pressure | Rain* | Wind** | Luminosity | Snow |
|---|---|---|---|---|---|---|---|
| 1777601845 | 3.89° C | 91% | 2147.4 hPa | - | - | - | - |
| 1777601236 | 3.33° C | 91% | 2147.4 hPa | - | - | - | - |
| 1777600932 | 3.33° C | 91% | 2147.4 hPa | - | - | - | - |
| 1777600629 | 3.33° C | 91% | 2147.4 hPa | - | - | - | - |
| 1777600325 | 2.78° C | 92% | 2147.4 hPa | - | - | - | - |
| 1777600022 | 2.78° C | 92% | 2147.4 hPa | - | - | - | - |
| 1777599719 | 2.78° C | 92% | 2147.4 hPa | - | - | - | - |
| 1777599415 | 2.78° C | 91% | 2147.4 hPa | - | - | - | - |
| 1777599112 | 2.78° C | 92% | 2147.4 hPa | - | - | - | - |
| 1777598808 | 2.78° C | 92% | 2147.4 hPa | - | - | - | - |
| 1777598504 | 2.22° C | 92% | 2147.4 hPa | - | - | - | - |
| 1777598201 | 2.22° C | 92% | 2147.4 hPa | - | - | - | - |
| 1777597898 | 2.22° C | 92% | 2147.4 hPa | - | - | - | - |
| 1777597595 | 2.22° C | 93% | 2147.4 hPa | - | - | - | - |
| 1777597291 | 2.22° C | 93% | 2147.4 hPa | - | - | - | - |
| 1777596987 | 2.78° C | 92% | 2147.4 hPa | - | - | - | - |
| 1777596684 | 2.78° C | 92% | 2147.4 hPa | - | - | - | - |
| 1777596383 | 2.78° C | 93% | 2147.4 hPa | - | - | - | - |
| 1777596080 | 3.33° C | 90% | 2147.4 hPa | - | - | - | - |
| 1777595776 | 3.33° C | 89% | 2147.4 hPa | - | - | - | - |
| 1777595473 | 3.33° C | 88% | 2147.4 hPa | - | - | - | - |
| 1777595170 | 3.89° C | 88% | 2147.4 hPa | - | - | - | - |
| 1777594867 | 3.89° C | 88% | 2147.4 hPa | - | - | - | - |
| 1777594563 | 3.89° C | 90% | 2147.4 hPa | - | - | - | - |
| 1777593956 | 3.89° C | 86% | 2147.4 hPa | - | - | - | - |
* Rain since midnight (hover to see other rain measurements)
** Current wind speed in m/s (hover to see current wind gust speed)